Home   Weather   Pensacola   Past weeks

Flag for USA Past Weather in Pensacola, Florida, USA — Yesterday and Last 2 Weeks

Now
80 °F

Low clouds.


Feels Like: 84 °F
Forecast: 73 / 81 °F
Wind: 16 mph from Southeast

Location: Pensacola Regional Airport

Current Time: Apr 30, 2017 at 11:39:46 am

Latest Report: Apr 30, 2017 at 10:53 am


Visibility: 9 mi

Pressure: 30.01 "Hg

Humidity: 76%

Dew Point: 72 °F

Location of PensacolaLocation

Past Weather in Pensacola — Graph

°F

Pensacola Temperature Yesterday

Maximum temperature yesterday: 81 °F (at 11:53 am)
Minimum temperature yesterday: 76 °F (at 1:14 am)
Average temperature yesterday: 78 °F

High & Low Weather Summary for the Past Weeks

 TemperatureHumidityPressure
High84 °F (Apr 27, 2:20 pm)97% (Apr 20, 8:06 am)30.26 "Hg (Apr 20, 8:06 am)
Low55 °F (Apr 25, 5:53 am)42% (Apr 18, 4:53 pm)29.73 "Hg (Apr 27, 3:53 am)
Average73 °F75%29.99 "Hg
* Reported Apr 15 9:53 am — Apr 30 9:53 am, Pensacola, Weather by CustomWeather, © 2017

Note: Actual official high and low records may vary slightly from our data, if they occured in-between our weather recording intervals... More about our weather records

Advertising

Pensacola Weather History for the Previous 24 Hours

Scroll right to see more
 ConditionsComfort  
Time TempWeatherWind HumidityBarometerVisibility
9:53 am
Sun, Apr 30
79 °FMostly cloudy.17 mph79%29.98 "Hg9 mi
8:53 am79 °FMostly cloudy.23 mph79%29.96 "Hg9 mi
7:53 am78 °FMostly cloudy.20 mph79%29.96 "Hg9 mi
7:28 am78 °FMostly cloudy.21 mph79%29.95 "Hg9 mi
6:53 am78 °FScattered clouds.21 mph79%29.94 "Hg9 mi
5:53 am77 °FPassing clouds.21 mph82%29.93 "Hg10 mi
5:20 am76 °FScattered clouds.16 mph85%29.93 "Hg10 mi
4:53 am76 °FPassing clouds.17 mph85%29.93 "Hg10 mi
3:53 am76 °FPassing clouds.14 mph85%29.94 "Hg10 mi
2:53 am76 °FClear.14 mph85%29.94 "Hg10 mi
1:53 am76 °FClear.9 mph85%29.97 "Hg10 mi
12:53 am76 °FClear.9 mph85%29.98 "Hg10 mi
11:53 pm
Sat, Apr 29
77 °FClear.10 mph82%29.99 "Hg10 mi
11:29 pm77 °FPassing clouds.12 mph85%29.98 "Hg10 mi
10:53 pm77 °FMostly cloudy.13 mph85%29.98 "Hg10 mi
9:53 pm77 °FMostly cloudy.17 mph85%29.99 "Hg9 mi
9:13 pm77 °FLow clouds.17 mph85%29.99 "Hg9 mi
8:53 pm77 °FOvercast.17 mph85%30.00 "Hg10 mi
7:53 pm77 °FLow clouds.15 mph85%30.01 "Hg10 mi
6:53 pm78 °FLow clouds.17 mph82%30.01 "Hg8 mi
5:53 pm78 °FMostly cloudy.17 mph82%30.01 "Hg8 mi
4:53 pm79 °FMostly cloudy.17 mph79%30.01 "Hg9 mi
3:53 pm80 °FMostly cloudy.20 mph76%30.02 "Hg9 mi
2:53 pm81 °FMostly cloudy.17 mph74%30.03 "Hg9 mi
1:53 pm81 °FMostly cloudy.21 mph77%30.05 "Hg10 mi
12:53 pm80 °FLow clouds.17 mph76%30.05 "Hg10 mi
11:53 am81 °FLow clouds.18 mph74%30.06 "Hg10 mi
Weather by CustomWeather, © 2017

See weather overviewHow to use our weather pages